IBE062G LEMD-LEVC

Flight info

Callsign IBE062G
Flight time 0h 36m
Altitude 24000
Route NANDO M871 MABUX
Aircraft A321/M-SDE3FGHIRWY/LB1

Departure

Time 2026-05-05 13:43
Airport Adolfo Suárez Madrid–Barajas Airport (LEMD)

Arrival

Time 2026-05-05 14:19
Airport Valencia Airport (LEVC)
Time Latitude Longitude Altitude Speed Heading
2026-05-05 13:34 40.49619 -3.56653 1976 ft 0 kts 270°
2026-05-05 13:37 40.49619 -3.56626 1977 ft 4 kts 270°
2026-05-05 13:37 40.49619 -3.56595 1978 ft 2 kts 269°
2026-05-05 13:37 40.49616 -3.56564 1978 ft 4 kts 300°
2026-05-05 13:37 40.49599 -3.56546 1978 ft 5 kts 356°
2026-05-05 13:38 40.49574 -3.56546 1979 ft 5 kts 360°
2026-05-05 13:38 40.49547 -3.56545 1975 ft 5 kts 360°
2026-05-05 13:38 40.49522 -3.56545 1977 ft 3 kts 360°
2026-05-05 13:38 40.49521 -3.56545 1977 ft 1 kts 360°
2026-05-05 13:40 40.49540 -3.56545 1979 ft 5 kts 360°
2026-05-05 13:40 40.49612 -3.56545 1977 ft 14 kts 360°
2026-05-05 13:40 40.49720 -3.56545 1977 ft 17 kts 360°
2026-05-05 13:40 40.49852 -3.56546 1979 ft 20 kts
2026-05-05 13:41 40.49939 -3.56423 1971 ft 22 kts 88°
2026-05-05 13:41 40.49935 -3.56216 1966 ft 23 kts 92°
2026-05-05 13:41 40.49950 -3.56022 1969 ft 17 kts 69°
2026-05-05 13:41 40.50048 -3.55922 1965 ft 20 kts 359°
2026-05-05 13:42 40.50202 -3.55928 1966 ft 24 kts 359°
2026-05-05 13:42 40.50589 -3.55929 1972 ft 91 kts 359°
2026-05-05 13:42 40.51433 -3.55933 1956 ft 153 kts
2026-05-05 13:42 40.52648 -3.55896 2137 ft 185 kts
2026-05-05 13:43 40.53954 -3.55877 2940 ft 189 kts 357°
2026-05-05 13:43 40.55273 -3.55557 3529 ft 199 kts 12°
2026-05-05 13:43 40.56628 -3.54984 3929 ft 211 kts 14°
2026-05-05 13:43 40.58065 -3.54374 4358 ft 221 kts 13°
2026-05-05 13:44 40.59525 -3.53632 4904 ft 231 kts 27°
2026-05-05 13:44 40.60838 -3.52332 5428 ft 241 kts 37°
2026-05-05 13:44 40.62114 -3.50867 6050 ft 246 kts 37°
2026-05-05 13:44 40.63420 -3.49374 6680 ft 251 kts 37°
2026-05-05 13:45 40.64755 -3.47861 7296 ft 256 kts 37°
2026-05-05 13:45 40.66117 -3.46326 7931 ft 260 kts 37°
2026-05-05 13:45 40.67495 -3.44776 8627 ft 262 kts 37°
2026-05-05 13:45 40.68891 -3.43208 9280 ft 266 kts 38°
2026-05-05 13:46 40.70308 -3.41611 9888 ft 266 kts 38°
2026-05-05 13:46 40.71703 -3.40045 10448 ft 263 kts 38°
2026-05-05 13:46 40.73074 -3.38448 11022 ft 267 kts 44°
2026-05-05 13:46 40.74042 -3.36339 11619 ft 272 kts 75°
2026-05-05 13:47 40.74069 -3.33873 12218 ft 271 kts 107°
2026-05-05 13:47 40.73206 -3.31701 12853 ft 268 kts 129°
2026-05-05 13:47 40.72036 -3.29797 13501 ft 267 kts 131°
2026-05-05 13:47 40.70817 -3.27944 14037 ft 269 kts 139°
2026-05-05 13:48 40.69363 -3.26364 14462 ft 274 kts 138°
2026-05-05 13:48 40.68086 -3.24453 14880 ft 282 kts 130°
2026-05-05 13:48 40.66856 -3.22397 15290 ft 289 kts 130°
2026-05-05 13:48 40.65585 -3.20304 15717 ft 296 kts 131°
2026-05-05 13:49 40.64259 -3.18172 16049 ft 307 kts 132°
2026-05-05 13:49 40.62864 -3.15965 16282 ft 321 kts 132°
2026-05-05 13:49 40.61396 -3.13662 16497 ft 336 kts 132°
2026-05-05 13:49 40.59861 -3.11262 16703 ft 350 kts 132°
2026-05-05 13:50 40.58260 -3.08758 16905 ft 364 kts 132°
2026-05-05 13:50 40.56599 -3.06169 17098 ft 377 kts 132°
2026-05-05 13:50 40.54872 -3.03485 17293 ft 390 kts 133°
2026-05-05 13:50 40.53089 -3.00712 17475 ft 402 kts 132°
2026-05-05 13:51 40.51257 -2.97860 17655 ft 414 kts 132°
2026-05-05 13:51 40.49375 -2.94941 17820 ft 424 kts 132°
2026-05-05 13:51 40.47446 -2.91953 18050 ft 432 kts 132°
2026-05-05 13:51 40.45497 -2.88929 18414 ft 435 kts 133°
2026-05-05 13:52 40.43534 -2.85892 18775 ft 438 kts 133°
2026-05-05 13:52 40.41561 -2.82833 19115 ft 440 kts 133°
2026-05-05 13:52 40.39569 -2.79751 19444 ft 443 kts 133°
2026-05-05 13:52 40.37565 -2.76663 19806 ft 445 kts 133°
2026-05-05 13:53 40.35549 -2.73563 20128 ft 448 kts 134°
2026-05-05 13:53 40.33523 -2.70442 20456 ft 451 kts 134°
2026-05-05 13:53 40.31487 -2.67302 20784 ft 453 kts 134°
2026-05-05 13:53 40.29442 -2.64153 21129 ft 455 kts 134°
2026-05-05 13:54 40.27386 -2.60993 21451 ft 457 kts 134°
2026-05-05 13:54 40.25318 -2.57826 21779 ft 459 kts 135°
2026-05-05 13:54 40.23240 -2.54642 22076 ft 461 kts 135°
2026-05-05 13:54 40.21150 -2.51445 22271 ft 466 kts 136°
2026-05-05 13:55 40.19033 -2.48207 22468 ft 471 kts 136°
2026-05-05 13:55 40.16893 -2.44935 22727 ft 474 kts 136°
2026-05-05 13:55 40.14751 -2.41656 23012 ft 476 kts 137°
2026-05-05 13:55 40.12586 -2.38360 23292 ft 478 kts 137°
2026-05-05 13:56 40.10409 -2.35063 23570 ft 481 kts 137°
2026-05-05 13:56 40.08222 -2.31745 23792 ft 483 kts 137°
2026-05-05 13:56 40.06037 -2.28427 23932 ft 478 kts 137°
2026-05-05 13:56 40.03925 -2.25186 23944 ft 462 kts 138°
2026-05-05 13:57 40.01848 -2.22008 23931 ft 460 kts 138°
2026-05-05 13:57 39.99770 -2.18843 23903 ft 461 kts 139°
2026-05-05 13:57 39.97682 -2.15652 23903 ft 465 kts 137°
2026-05-05 13:57 39.95952 -2.12017 23900 ft 480 kts 121°
2026-05-05 13:58 39.94894 -2.07856 23540 ft 489 kts 106°
2026-05-05 13:58 39.94621 -2.03429 22853 ft 491 kts 92°
2026-05-05 13:58 39.94570 -1.99021 22253 ft 481 kts 102°
2026-05-05 13:58 39.93807 -1.94855 21635 ft 468 kts 112°
2026-05-05 13:59 39.91773 -1.86871 20510 ft 476 kts 113°
2026-05-05 13:59 39.90754 -1.82724 20052 ft 481 kts 112°
2026-05-05 14:00 39.88039 -1.74992 19117 ft 461 kts 129°
2026-05-05 14:00 39.86851 -1.72709 18814 ft 458 kts 130°
2026-05-05 14:00 39.84464 -1.68154 18208 ft 454 kts 129°
2026-05-05 14:00 39.82717 -1.64751 17692 ft 450 kts 129°
2026-05-05 14:01 39.81006 -1.61371 17164 ft 446 kts 128°
2026-05-05 14:01 39.79314 -1.58017 16611 ft 442 kts 128°
2026-05-05 14:01 39.77628 -1.54685 16099 ft 439 kts 128°
2026-05-05 14:01 39.75952 -1.51390 15585 ft 435 kts 128°
2026-05-05 14:02 39.74289 -1.48121 15095 ft 432 kts 128°
2026-05-05 14:02 39.72636 -1.44884 14614 ft 428 kts 128°
2026-05-05 14:02 39.70998 -1.41671 14139 ft 425 kts 127°
2026-05-05 14:02 39.69377 -1.38490 13675 ft 420 kts 127°
2026-05-05 14:03 39.67781 -1.35367 13138 ft 411 kts 127°
2026-05-05 14:03 39.66217 -1.32312 12620 ft 402 kts 127°
2026-05-05 14:03 39.64690 -1.29321 12099 ft 394 kts 127°
2026-05-05 14:03 39.63185 -1.26385 11592 ft 386 kts 126°
2026-05-05 14:04 39.61710 -1.23504 11094 ft 380 kts 126°
2026-05-05 14:04 39.60262 -1.20673 10600 ft 374 kts 126°
2026-05-05 14:04 39.58834 -1.17892 10113 ft 368 kts 126°
2026-05-05 14:04 39.57420 -1.15147 9599 ft 363 kts 126°
2026-05-05 14:05 39.56024 -1.12446 9072 ft 359 kts 126°
2026-05-05 14:05 39.54690 -1.09738 8530 ft 356 kts 120°
2026-05-05 14:05 39.53725 -1.06792 8017 ft 354 kts 112°
2026-05-05 14:05 39.52891 -1.03815 7497 ft 349 kts 111°
2026-05-05 14:06 39.52081 -1.00870 7069 ft 343 kts 112°
2026-05-05 14:06 39.51247 -0.98029 6840 ft 332 kts 113°
2026-05-05 14:06 39.50423 -0.95288 6508 ft 323 kts 113°
2026-05-05 14:06 39.49617 -0.92595 6117 ft 318 kts 113°
2026-05-05 14:07 39.48819 -0.89943 5715 ft 314 kts 113°
2026-05-05 14:07 39.48030 -0.87303 5310 ft 307 kts 113°
2026-05-05 14:07 39.47272 -0.84751 4962 ft 301 kts 114°
2026-05-05 14:07 39.46524 -0.82250 4687 ft 294 kts 113°
2026-05-05 14:08 39.45796 -0.79814 4375 ft 287 kts 113°
2026-05-05 14:08 39.45080 -0.77432 4064 ft 281 kts 112°
2026-05-05 14:08 39.44383 -0.75118 3942 ft 269 kts 113°
2026-05-05 14:08 39.43728 -0.72936 3927 ft 252 kts 113°
2026-05-05 14:09 39.43308 -0.71538 3922 ft 245 kts 113°
2026-05-05 14:09 39.42483 -0.68808 3942 ft 249 kts 113°
2026-05-05 14:09 39.42055 -0.67396 3952 ft 249 kts 114°
2026-05-05 14:09 39.41423 -0.65321 3957 ft 248 kts 114°
2026-05-05 14:10 39.40795 -0.63247 3960 ft 249 kts 113°
2026-05-05 14:10 39.40164 -0.61166 3961 ft 250 kts 114°
2026-05-05 14:10 39.39534 -0.59084 3966 ft 249 kts 114°
2026-05-05 14:10 39.38898 -0.56998 3964 ft 248 kts 114°
2026-05-05 14:11 39.38267 -0.54917 3964 ft 248 kts 114°
2026-05-05 14:11 39.37659 -0.52835 3957 ft 248 kts 111°
2026-05-05 14:11 39.37089 -0.50731 3962 ft 248 kts 111°
2026-05-05 14:11 39.36523 -0.48631 3953 ft 247 kts 111°
2026-05-05 14:12 39.35961 -0.46540 3645 ft 246 kts 111°
2026-05-05 14:12 39.35398 -0.44461 3308 ft 245 kts 111°
2026-05-05 14:12 39.34840 -0.42399 3009 ft 242 kts 111°
2026-05-05 14:12 39.34276 -0.40343 2928 ft 243 kts 111°
2026-05-05 14:13 39.33702 -0.38286 2940 ft 244 kts 111°
2026-05-05 14:13 39.33139 -0.36223 2949 ft 244 kts 107°
2026-05-05 14:13 39.33011 -0.34052 2949 ft 245 kts 80°
2026-05-05 14:13 39.33662 -0.32044 2955 ft 245 kts 51°
2026-05-05 14:14 39.34922 -0.30625 2853 ft 238 kts 28°
2026-05-05 14:14 39.36394 -0.29648 2550 ft 238 kts 24°
2026-05-05 14:14 39.37878 -0.28704 2446 ft 234 kts 25°
2026-05-05 14:14 39.39325 -0.27960 2416 ft 216 kts
2026-05-05 14:15 39.40771 -0.28167 2425 ft 208 kts 331°
2026-05-05 14:15 39.41849 -0.29335 2453 ft 201 kts 299°
2026-05-05 14:15 39.42471 -0.30950 2467 ft 201 kts 292°
2026-05-05 14:15 39.43065 -0.32583 2476 ft 196 kts 292°
2026-05-05 14:16 39.43626 -0.34089 2395 ft 178 kts 293°
2026-05-05 14:16 39.44144 -0.35464 2187 ft 162 kts 293°
2026-05-05 14:16 39.44620 -0.36727 1958 ft 150 kts 292°
2026-05-05 14:16 39.45062 -0.37897 1734 ft 142 kts 291°
2026-05-05 14:17 39.45507 -0.39078 1529 ft 146 kts 293°
2026-05-05 14:17 39.45951 -0.40256 1349 ft 146 kts 294°
2026-05-05 14:17 39.46399 -0.41444 1145 ft 145 kts 295°
2026-05-05 14:17 39.46842 -0.42618 977 ft 145 kts 294°
2026-05-05 14:18 39.47282 -0.43783 790 ft 143 kts 294°
2026-05-05 14:18 39.47712 -0.44928 593 ft 141 kts 292°
2026-05-05 14:18 39.48137 -0.46067 414 ft 139 kts 291°
2026-05-05 14:18 39.48558 -0.47163 218 ft 129 kts 293°
2026-05-05 14:19 39.48888 -0.48065 221 ft 91 kts 297°
2026-05-05 14:19 39.49043 -0.48427 216 ft 38 kts 307°
2026-05-05 14:19 39.49195 -0.48511 215 ft 12 kts 41°
2026-05-05 14:19 39.49216 -0.48397 215 ft 15 kts 100°
2026-05-05 14:20 39.49171 -0.48262 218 ft 18 kts 115°
2026-05-05 14:20 39.49114 -0.48104 217 ft 21 kts 116°
2026-05-05 14:20 39.49062 -0.47977 218 ft 1 kts 118°
2026-05-05 14:20 39.49055 -0.47959 217 ft 4 kts 117°
2026-05-05 14:21 39.49038 -0.47912 216 ft 8 kts 114°
2026-05-05 14:21 39.49031 -0.47820 215 ft 13 kts 78°
2026-05-05 14:21 39.49054 -0.47696 217 ft 16 kts 76°
2026-05-05 14:21 39.49027 -0.47549 217 ft 19 kts 117°
2026-05-05 14:22 39.48995 -0.47471 219 ft 0 kts 117°
2026-05-05 14:22 39.48992 -0.47464 216 ft 5 kts 118°
2026-05-05 14:22 39.48972 -0.47412 217 ft 8 kts 117°
2026-05-05 14:22 39.49004 -0.47350 214 ft 12 kts 16°
2026-05-05 14:23 39.49021 -0.47342 216 ft 0 kts 20°
2026-05-05 14:23 39.49033 -0.47335 220 ft 0 kts 29°